Wind_Speed
35 34 34 34 33 33 32 32 31 31 31 30 29 28 27 26 24 23 21 19 17 16 15 14 14 13 12 12 11 10 9 9 9 9 10 11 11 12 14 15 16 16 17 17 19 20 21 23 25 25 25 26 26 27 28 29 30 30 30 30 30 31 31 30 29 28 27 24 20 20 20 19 20 21 21 22 23 24 24 24 24 24 24 24 24 25 26 26
37 37 37 36 36 35 35 34 34 34 33 33 32 31 30 29 28 26 24 22 20 19 18 17 17 16 15 15 15 14 13 11 11 12 11 10 10 12 13 13 14 15 16 16 17 17 18 19 21 22 23 24 24 25 26 27 27 27 27 27 28 28 28 29 28 27 25 22 19 17 17 17 18 20 20 21 22 23 23 22 22 23 23 23 23 24 26 27
40 39 39 39 38 38 37 37 36 36 36 36 35 34 34 32 31 29 27 26 24 22 21 20 20 19 19 18 18 17 17 15 14 14 12 12 13 13 13 13 14 14 15 15 16 16 17 17 18 18 19 20 20 21 21 21 22 22 21 22 22 23 25 26 25 22 20 17 16 14 16 18 18 18 19 21 21 21 21 21 21 23 24 24 24 25 26 27
42 42 42 42 41 41 40 40 39 39 39 39 38 38 37 36 34 32 31 29 27 26 24 23 23 22 22 22 22 21 20 19 18 17 16 16 16 14 14 14 14 14 14 15 15 16 16 16 16 16 16 16 17 17 17 17 16 16 17 17 17 17 19 21 20 18 17 16 16 17 18 19 19 18 18 19 20 20 20 21 22 23 24 24 25 24 25 25
44 45 45 45 44 44 43 43 42 42 42 41 41 40 39 39 37 36 34 32 31 29 28 27 26 25 25 25 25 24 24 22 21 22 20 18 17 17 17 16 16 16 15 15 15 15 15 15 16 16 15 15 15 15 15 15 15 15 15 15 15 15 16 17 16 16 17 17 18 18 19 18 17 17 17 18 19 20 21 22 22 22 23 24 23 23 23 25
46 47 47 48 48 47 47 46 46 45 45 44 44 43 42 41 40 39 37 35 34 32 31 30 29 28 27 28 28 28 28 26 26 26 23 21 21 20 20 19 19 18 17 17 16 16 16 17 17 16 16 16 16 15 15 14 14 15 15 14 14 15 15 16 17 16 16 17 17 17 18 17 16 17 17 17 18 19 21 22 22 22 22 22 22 22 23 25
49 49 49 50 50 50 50 49 49 49 48 48 47 46 45 44 43 42 40 39 37 35 34 33 32 31 30 30 30 31 31 30 31 29 27 26 25 24 23 22 22 21 20 19 19 19 18 18 18 17 17 18 16 15 15 16 16 15 15 15 15 15 16 17 18 19 19 18 18 18 19 17 16 15 16 17 17 19 21 22 21 21 21 21 21 22 23 24
51 51 51 52 52 52 52 52 52 52 51 51 50 49 48 47 46 44 43 42 40 39 37 36 35 34 33 33 33 33 33 34 34 31 31 31 30 29 27 26 26 25 23 22 21 21 20 20 20 19 19 19 17 17 18 18 18 17 16 16 16 16 17 18 19 20 21 20 19 19 19 18 15 15 15 17 17 18 20 20 20 20 20 21 21 21 22 22
54 54 54 54 54 54 54 54 55 55 54 54 53 52 51 50 49 47 46 45 43 42 40 39 38 37 36 36 36 36 35 36 36 34 35 35 33 33 32 31 30 29 27 25 25 24 23 23 21 21 21 20 19 20 20 21 20 18 19 18 18 18 18 19 20 20 21 21 21 21 21 19 16 15 15 16 16 18 18 18 19 19 20 20 19 20 20 21
56 56 57 57 56 56 56 56 57 57 56 56 56 55 54 53 52 50 49 48 47 45 43 42 41 40 39 39 40 38 36 38 38 37 38 38 37 36 36 35 34 33 31 30 28 27 27 25 24 23 23 23 23 23 23 23 21 21 21 20 20 20 20 21 21 21 21 22 22 22 22 19 17 16 15 15 16 16 16 17 19 19 18 19 20 19 18 20
59 59 59 59 58 58 58 58 58 58 58 58 58 57 56 56 54 53 52 50 49 48 47 45 44 44 42 43 43 40 37 41 41 40 40 40 39 39 39 39 38 37 35 34 33 32 30 28 26 26 26 27 26 26 26 25 24 23 23 23 23 22 22 22 22 22 22 22 23 22 22 20 18 17 16 15 16 16 16 17 18 18 17 18 19 17 17 19
61 60 60 61 60 60 60 59 60 59 59 59 59 59 58 57 56 55 54 53 52 51 50 48 47 46 45 47 46 41 40 44 44 42 42 42 42 41 42 41 41 40 39 38 37 36 34 32 29 29 29 29 28 29 29 27 26 26 25 25 24 24 24 23 23 23 23 23 23 23 23 21 20 19 17 16 16 16 16 16 17 17 16 18 18 16 17 18
62 62 62 62 62 61 61 61 61 61 61 60 60 60 60 59 58 57 56 55 54 53 52 50 49 48 48 50 47 43 44 46 46 45 43 43 43 44 44 43 43 42 41 41 40 39 37 35 33 32 31 30 31 32 31 29 28 28 27 26 25 25 25 24 24 24 23 24 24 24 24 22 21 20 18 16 16 16 17 17 16 16 16 18 17 15 16 16
63 63 63 63 63 63 63 63 62 62 62 62 61 61 61 60 59 58 57 56 55 54 53 52 51 49 50 52 49 45 47 48 49 48 45 45 45 46 46 45 45 44 44 43 42 42 41 39 37 35 33 33 34 33 31 31 30 29 28 27 27 28 27 25 25 25 24 25 25 25 25 24 22 21 20 18 17 16 16 17 16 15 15 17 16 14 15 15
65 65 65 65 65 65 64 64 64 64 63 63 63 62 62 62 60 59 58 57 56 56 55 53 53 51 52 54 50 47 50 50 51 50 47 46 46 47 48 47 47 47 46 45 44 44 43 42 40 38 37 36 35 34 33 34 33 31 30 30 30 30 28 26 27 26 25 26 27 27 26 25 23 23 23 20 18 17 15 16 16 14 14 16 16 14 14 14
67 67 67 67 67 67 67 67 66 66 66 65 65 64 64 63 62 61 60 60 58 58 57 55 55 54 54 56 53 50 51 51 52 51 50 49 48 49 50 49 49 49 48 47 46 45 44 44 43 41 40 38 36 36 36 35 36 35 33 33 33 31 28 27 28 28 26 27 28 28 27 26 24 24 25 22 20 19 17 16 15 15 15 16 15 14 14 13
70 70 70 70 70 70 70 70 69 69 69 68 68 67 67 66 65 63 63 63 61 60 59 57 57 56 56 57 55 52 51 52 52 52 53 51 51 51 51 51 50 50 50 48 47 46 46 45 45 44 42 40 39 38 37 38 41 40 37 35 33 32 29 28 30 29 28 28 29 29 28 27 26 26 27 24 22 21 20 18 15 16 16 15 14 14 13 13
73 73 73 73 73 73 73 73 72 72 72 72 71 70 70 69 68 66 66 65 64 63 61 60 58 57 58 58 58 56 54 54 54 54 55 53 53 52 52 53 52 51 51 49 49 48 47 47 46 45 44 43 42 40 40 43 45 40 37 35 34 32 30 30 30 30 29 30 30 30 30 30 28 28 30 27 24 23 23 20 16 16 16 14 13 12 12 13
77 77 77 76 76 76 76 76 75 75 75 75 74 73 72 72 71 69 68 68 67 65 64 62 60 59 60 60 61 59 56 55 54 55 56 55 55 54 53 54 53 52 52 51 51 50 49 47 45 45 47 47 46 43 44 46 44 39 37 37 35 33 32 31 31 31 31 32 31 32 33 33 29 30 32 29 26 25 26 23 17 16 15 14 13 13 13 13
80 80 80 80 81 81 80 80 79 79 78 78 77 77 75 74 74 71 70 71 69 68 66 64 62 62 63 63 63 61 59 57 55 56 57 57 56 55 54 54 55 53 52 53 53 52 50 47 45 48 50 49 47 46 46 46 42 39 38 38 37 36 35 34 33 33 33 34 34 34 35 34 31 31 33 31 28 28 29 26 21 17 16 15 15 15 15 13
84 84 84 84 84 84 84 84 83 83 83 82 81 81 79 78 77 75 73 73 73 71 69 67 65 64 67 67 65 65 63 59 58 58 59 60 58 57 56 56 56 55 55 56 55 53 50 47 50 53 51 50 48 47 47 46 43 40 39 40 40 39 38 37 36 35 35 35 36 36 36 35 33 32 34 33 31 30 31 29 25 21 18 18 17 16 15 13
87 88 88 89 88 89 89 88 87 87 87 86 85 85 84 83 81 79 76 75 77 76 72 72 69 67 71 73 69 68 66 62 62 62 62 62 60 58 58 58 58 58 59 57 55 53 50 52 56 55 52 51 50 49 48 47 44 42 41 41 41 41 41 40 39 39 38 37 37 37 36 36 36 34 34 35 34 32 33 31 27 24 21 21 19 16 14 13
88 89 90 90 91 91 92 92 92 91 91 90 89 88 88 87 85 83 80 78 80 82 78 76 75 73 75 78 75 71 68 67 67 66 65 63 62 62 60 60 60 61 60 57 55 54 53 58 59 55 53 52 51 50 49 47 45 43 42 42 43 45 44 43 42 41 40 38 38 38 37 36 37 36 33 36 37 34 34 34 30 26 23 23 22 18 15 13
88 89 90 90 91 92 92 94 94 94 94 94 94 93 92 91 89 87 85 81 81 85 84 80 79 79 80 83 80 74 71 71 71 69 68 66 66 66 63 62 63 63 60 58 58 57 57 61 59 55 54 53 52 51 49 48 46 46 45 44 46 48 46 45 44 43 41 39 38 38 37 37 38 38 34 35 37 36 35 36 34 29 25 25 23 19 15 14
90 91 91 92 92 92 92 93 94 94 94 95 95 95 95 94 93 90 88 86 85 88 89 85 83 84 86 86 82 77 75 75 74 74 73 71 70 70 67 66 66 64 62 62 62 59 61 63 59 57 56 54 53 51 51 50 49 48 47 47 50 50 48 47 45 43 42 40 38 39 38 38 39 39 37 36 35 35 36 36 37 33 28 26 26 22 17 16
93 93 94 94 95 95 94 94 95 95 95 95 95 95 95 94 94 92 90 89 90 91 92 92 89 88 89 88 84 83 79 76 77 79 77 74 74 73 72 69 67 66 66 66 65 62 63 64 61 59 58 56 54 52 53 53 51 50 50 51 52 51 49 48 46 44 42 40 39 40 40 40 40 39 39 39 35 33 35 36 38 37 31 28 28 24 20 18
92 93 94 95 95 96 97 97 97 97 97 96 96 95 94 93 92 92 90 91 93 94 94 96 96 93 92 91 90 87 81 78 82 83 80 78 77 76 74 72 71 70 70 70 66 63 65 66 63 62 61 58 55 54 56 55 52 51 53 54 53 52 50 48 47 45 43 42 41 41 41 41 39 37 39 41 37 33 34 36 39 41 35 29 28 26 22 19
92 93 94 94 94 95 96 97 97 98 98 98 97 96 95 94 93 91 91 92 95 97 96 97 98 97 94 92 92 90 86 84 85 86 85 82 81 79 77 75 74 74 74 72 67 66 70 69 66 66 64 59 57 58 59 56 53 54 56 55 53 53 51 50 49 46 44 43 41 42 42 41 38 37 39 41 39 36 35 37 40 43 39 30 28 28 24 20
91 92 93 94 94 94 94 95 96 97 97 96 96 96 96 95 94 93 93 96 99 99 98 96 96 96 94 92 92 92 91 89 88 89 89 86 83 81 79 78 78 78 77 73 69 70 73 70 69 69 65 61 60 62 61 57 55 57 58 56 54 54 52 51 49 46 45 43 42 43 42 41 40 40 40 40 43 42 37 37 39 42 40 31 29 30 26 22
91 92 93 93 94 94 93 93 94 95 96 95 94 94 94 93 93 94 95 99 103 103 99 96 94 94 94 93 92 92 92 91 90 91 92 90 87 85 83 83 83 80 78 75 72 72 74 73 72 69 65 63 63 63 61 58 58 60 59 56 55 54 53 52 49 48 45 41 41 45 45 45 42 42 41 40 47 46 37 36 37 39 41 33 30 31 28 24
92 93 93 93 94 94 93 92 92 93 93 94 94 93 92 91 90 91 94 98 103 105 101 96 94 93 94 93 91 91 91 92 92 91 92 93 91 89 88 87 85 82 80 77 73 74 76 74 71 67 65 64 64 63 61 59 60 60 58 56 55 55 54 52 50 47 42 41 45 48 49 46 41 41 42 42 47 45 37 37 36 37 42 35 30 32 29 25
95 95 95 95 94 94 94 93 92 91 91 91 92 92 92 92 91 91 93 97 100 102 99 95 93 93 94 93 92 92 93 93 93 92 93 94 92 90 89 88 87 85 81 76 75 76 76 72 70 68 67 65 64 63 62 61 61 60 59 57 56 56 54 51 48 44 43 46 49 50 49 44 40 42 43 43 45 42 37 38 34 35 41 36 31 31 29 25
95 96 96 95 95 95 94 94 93 92 90 89 89 89 89 90 90 91 94 96 97 96 93 90 90 92 93 95 96 96 96 96 96 96 95 95 93 90 88 88 88 86 82 81 82 80 77 75 73 70 67 66 65 64 63 62 62 61 60 58 57 55 53 50 48 47 48 50 50 50 47 42 42 45 43 42 43 39 36 35 31 34 40 37 33 31 29 26
95 96 97 96 95 94 94 93 92 91 91 89 87 87 86 87 88 89 92 95 94 93 91 89 90 91 91 93 97 100 102 101 101 100 99 98 96 92 89 88 88 86 86 87 87 83 81 80 75 71 70 70 69 67 66 66 65 64 62 61 59 55 53 51 51 53 52 52 51 48 44 42 45 46 42 41 41 38 35 32 29 32 39 38 35 34 31 29
94 94 96 96 95 94 94 93 92 91 90 89 88 86 85 84 84 85 88 91 92 91 91 91 92 92 91 93 98 103 105 106 105 104 102 99 96 93 91 89 89 89 89 89 87 84 84 81 77 77 77 75 72 70 70 70 68 66 65 62 58 55 55 55 55 55 54 52 49 43 42 45 46 43 40 40 40 38 36 32 30 33 38 38 37 36 35 33
90 89 90 92 92 91 91 91 90 89 89 88 87 86 84 82 81 82 84 88 90 90 91 93 94 94 93 95 100 103 103 103 105 105 103 100 96 94 92 91 91 92 92 90 87 85 84 81 80 83 81 78 76 75 74 73 70 68 65 60 55 56 59 58 56 56 53 49 45 41 43 46 42 39 39 39 40 39 37 34 32 35 38 38 39 38 37 36
82 82 81 83 85 85 86 86 86 85 85 85 84 83 83 81 79 79 80 84 88 88 89 92 95 96 96 98 100 99 97 98 101 102 102 102 100 98 97 95 95 97 97 94 92 90 87 83 84 85 81 78 77 77 77 75 73 69 63 59 59 62 63 59 56 55 51 46 43 42 45 44 39 38 39 39 40 39 37 35 34 35 36 39 41 40 38 38
74 74 73 75 78 78 78 79 80 80 81 81 81 80 80 79 78 77 78 81 85 87 87 90 94 96 97 98 98 97 95 96 99 100 101 103 104 103 103 102 102 103 103 101 98 95 90 87 87 84 80 78 79 79 78 75 71 67 63 63 65 65 62 58 55 52 48 45 44 44 45 42 38 39 40 39 39 39 36 34 34 34 35 39 43 42 40 39
67 66 64 67 71 71 71 72 73 75 76 77 77 77 77 77 77 77 78 79 82 84 85 89 93 96 97 97 96 96 96 97 98 99 101 104 105 107 107 107 107 106 104 100 97 94 91 89 88 84 80 81 83 81 76 71 68 65 64 66 66 63 61 57 53 50 47 45 44 44 44 41 40 43 42 39 38 38 35 34 34 33 34 40 45 45 44 40
61 60 59 60 64 65 65 66 67 68 71 72 72 73 73 73 75 76 77 78 79 81 84 88 92 95 97 96 96 97 98 97 98 100 103 105 105 106 106 106 106 106 103 99 93 90 89 88 87 85 85 86 85 79 72 67 66 65 63 63 62 60 58 54 50 48 47 44 43 43 42 40 43 43 39 36 36 36 35 34 35 33 34 41 46 49 48 43
57 57 56 56 58 59 59 60 62 64 66 67 67 68 68 68 70 73 75 77 78 79 83 87 91 94 96 96 97 99 98 97 100 102 105 107 106 104 102 102 104 105 103 100 96 92 90 87 86 87 88 88 83 75 70 68 68 67 64 62 60 58 55 50 47 47 46 44 44 43 42 42 43 39 34 34 35 35 35 36 36 34 35 42 49 52 52 48
55 53 53 52 53 53 54 55 57 59 60 62 63 63 62 63 65 68 69 71 74 76 81 86 90 92 94 97 100 99 96 97 101 104 106 110 108 104 101 99 100 102 101 100 98 94 91 87 85 86 87 83 77 74 72 71 72 71 68 65 62 59 55 50 48 50 49 47 46 45 44 43 41 37 35 35 35 35 36 37 37 36 37 44 50 53 55 51
54 52 50 49 49 49 50 51 53 54 55 56 56 57 58 58 60 63 64 64 66 71 77 83 87 91 95 99 101 99 96 98 103 107 109 111 109 104 101 99 98 97 95 94 93 91 90 88 86 85 84 79 78 78 77 76 77 76 70 65 61 58 55 52 52 55 53 50 49 47 45 43 41 39 38 37 35 35 36 38 37 37 39 44 50 54 56 52
50 50 48 47 45 45 46 47 49 51 51 51 51 52 54 54 55 57 59 58 59 64 71 77 83 89 95 99 99 98 98 100 104 108 110 111 108 104 102 98 96 94 90 89 90 89 90 91 90 89 87 82 81 82 80 79 78 74 67 63 59 57 57 56 56 56 53 51 50 49 47 44 42 41 39 37 36 35 36 37 37 38 40 43 49 54 55 53
44 46 47 46 43 41 41 43 45 47 47 48 48 48 48 49 50 52 53 52 53 59 65 70 77 85 93 98 98 100 102 103 106 108 108 108 107 104 102 98 95 92 88 87 88 87 88 90 90 90 89 84 82 82 78 74 71 69 65 63 61 60 60 59 58 55 53 51 49 49 48 44 42 42 39 37 35 33 34 36 37 39 40 42 47 53 55 54
38 38 40 44 44 40 39 39 41 43 43 43 45 44 44 45 45 46 47 47 48 54 60 64 70 79 88 94 97 101 104 105 106 107 105 105 106 104 101 98 94 91 89 87 87 85 85 87 87 88 88 85 83 82 77 73 71 70 68 64 63 62 60 60 58 54 52 51 50 50 48 44 43 43 39 35 32 31 33 35 37 39 40 42 46 51 55 55
36 34 34 37 40 39 38 37 37 38 38 39 40 40 40 40 40 40 42 43 46 51 56 60 65 73 81 89 95 101 105 105 105 106 103 103 105 103 100 98 95 91 89 88 87 84 83 85 86 86 87 86 85 84 81 77 75 73 70 66 63 61 59 58 56 54 53 53 51 50 48 44 45 44 40 34 32 33 35 35 36 39 41 42 44 49 54 55
36 35 33 33 34 35 35 35 35 35 34 34 35 35 35 35 35 35 36 39 43 47 52 56 61 66 74 83 91 97 103 106 105 105 103 102 103 101 98 98 95 91 89 89 87 83 83 84 85 85 86 86 85 85 83 78 74 72 70 66 63 61 58 55 56 56 55 53 52 51 49 47 47 46 41 36 35 36 37 36 36 37 39 41 43 47 52 55
36 36 35 34 33 32 33 32 32 32 31 31 31 30 31 31 31 31 32 36 40 44 48 53 56 61 68 76 84 92 100 104 104 104 103 102 102 101 97 97 97 92 89 89 86 83 83 85 85 83 83 83 83 84 81 76 72 70 69 66 63 61 59 58 59 59 57 55 54 52 50 49 48 46 42 40 39 39 39 38 37 37 37 40 43 46 50 54
35 35 35 34 33 32 31 31 31 30 28 28 28 26 26 27 27 26 28 32 36 40 44 49 52 57 63 70 78 86 94 99 100 102 104 104 103 101 97 97 98 93 89 89 87 84 84 85 84 82 81 83 83 82 80 75 73 71 70 67 63 61 60 61 62 61 59 58 57 55 53 51 49 47 45 44 43 40 38 38 37 38 38 39 41 42 45 51
36 35 34 33 32 31 29 29 29 28 26 25 25 24 23 23 23 23 25 29 33 36 41 45 49 54 59 65 73 80 86 91 96 101 105 106 105 102 98 98 98 94 90 89 87 85 85 85 84 81 81 84 84 82 80 76 73 72 71 69 65 62 62 62 62 61 59 60 59 57 55 52 50 49 48 47 44 40 39 38 37 38 40 40 40 40 42 47
39 37 35 34 32 31 29 28 27 27 25 24 23 22 21 21 20 20 22 26 29 33 37 41 45 50 55 61 69 74 78 84 91 99 104 106 106 102 98 98 98 94 90 89 87 86 85 85 84 82 82 85 84 82 80 76 72 71 72 70 67 64 62 62 63 63 61 61 60 58 56 54 53 52 50 49 46 42 39 38 37 39 41 41 40 39 39 43
Wind_Direction
249 249 250 250 250 251 251 253 254 255 256 257 257 256 255 252 248 245 243 240 237 236 237 238 236 231 227 228 232 230 219 205 200 201 191 183 181 179 180 181 182 186 190 196 203 209 214 217 219 221 223 225 228 230 232 234 235 237 241 244 245 247 249 251 252 253 255 260 264 268 272 273 274 279 285 291 297 300 300 301 302 302 304 307 306 303 300 297
249 249 250 250 250 251 251 252 252 253 254 255 256 256 256 254 250 246 243 241 239 238 237 238 238 237 233 230 231 233 231 221 211 213 206 199 198 192 189 186 184 184 186 189 192 196 202 207 212 215 217 218 220 224 226 229 230 232 235 238 241 242 243 244 247 251 255 260 264 268 272 272 274 281 288 295 297 298 299 301 302 304 308 310 311 307 302 299
250 250 250 251 251 251 251 251 251 252 252 253 254 255 255 254 253 249 245 243 241 240 238 239 239 239 238 236 234 233 233 229 224 222 214 212 212 206 201 196 193 192 190 191 192 195 197 200 203 205 208 210 211 214 217 220 223 225 227 231 234 237 237 238 241 245 249 255 259 264 269 272 277 286 293 295 294 294 298 300 302 305 308 309 311 308 305 304
251 251 251 251 251 251 251 251 251 251 252 252 253 254 255 254 253 252 248 245 243 241 239 239 239 241 242 240 237 236 235 232 231 229 222 219 216 212 214 210 204 202 200 200 200 200 201 201 203 203 203 204 206 207 210 214 217 218 220 224 227 230 231 232 235 239 242 250 257 263 268 271 280 289 293 293 293 296 299 301 303 307 309 310 311 310 310 309
253 253 253 252 252 252 252 252 252 252 252 252 253 253 254 255 254 253 251 248 245 243 242 240 239 240 242 243 241 239 236 234 235 233 227 225 223 218 219 219 216 213 211 210 209 209 209 209 209 208 206 207 208 209 211 214 217 219 220 224 227 229 232 232 233 237 242 251 258 263 267 270 279 286 288 292 298 300 301 304 306 310 311 312 312 313 312 310
254 254 254 254 254 253 253 253 253 253 253 253 254 254 254 254 255 254 253 251 248 245 244 243 241 239 241 243 244 243 239 236 237 235 231 229 229 227 224 223 222 220 220 218 217 218 218 218 217 213 213 214 213 213 216 219 220 223 224 224 228 232 235 235 235 237 242 250 256 261 267 272 278 285 289 294 302 303 303 306 309 313 314 315 316 314 310 308
255 256 256 256 255 255 255 254 254 254 254 254 255 254 255 255 255 255 254 253 251 248 246 245 244 241 241 243 244 244 243 240 238 236 235 234 232 232 230 229 227 223 222 222 222 223 224 224 224 222 221 220 217 218 221 224 225 227 228 226 228 233 237 238 239 241 244 250 256 260 263 267 275 285 291 295 299 301 304 308 313 318 317 317 318 315 312 308
256 257 257 257 257 256 256 255 255 255 255 256 256 255 255 255 255 255 255 254 252 251 249 248 246 244 242 243 243 243 244 244 241 238 238 236 235 235 234 233 232 229 224 223 224 224 226 228 228 228 229 227 224 226 227 228 229 231 234 233 232 236 240 241 242 245 248 251 254 258 261 266 276 286 290 294 297 301 307 312 318 322 317 315 318 318 317 315
257 258 258 258 258 257 257 257 256 256 256 256 256 256 256 256 256 255 255 255 253 252 251 251 249 247 245 245 244 242 243 245 243 242 241 238 237 238 237 236 236 235 230 226 225 224 225 227 229 230 233 235 232 230 232 233 233 234 237 239 238 239 243 245 246 248 251 252 255 259 261 265 277 286 289 294 298 303 308 313 319 322 317 314 318 323 324 322
259 259 259 259 259 259 258 258 257 257 257 257 257 257 257 256 256 255 255 255 254 253 252 251 251 251 249 248 246 242 243 246 243 242 243 240 238 238 238 239 237 237 236 232 229 228 227 226 228 231 233 234 234 233 235 237 237 238 240 243 244 244 246 249 250 251 253 256 258 261 263 266 275 281 284 292 297 301 308 313 318 320 315 311 317 325 328 324
260 260 260 260 260 259 259 258 258 258 258 258 257 257 257 257 256 256 255 254 254 253 252 252 252 252 252 251 248 243 245 247 243 241 242 242 240 239 239 239 239 238 239 237 235 232 230 229 228 231 233 233 234 236 236 238 239 241 242 244 246 247 248 250 253 255 256 259 262 264 266 270 275 276 281 290 297 301 306 312 317 317 309 308 315 322 325 326
260 260 260 260 260 259 259 259 258 258 258 258 258 258 257 257 256 256 255 255 254 253 252 251 251 252 252 252 249 247 249 248 244 241 242 242 241 242 240 239 239 239 239 240 239 237 233 232 231 232 235 235 236 238 238 238 239 242 243 244 246 248 249 251 254 257 259 262 264 266 269 272 274 277 282 290 298 304 307 310 316 314 307 310 316 318 321 327
260 260 260 260 260 259 259 259 258 258 258 258 258 258 258 257 257 256 256 255 254 253 252 251 251 251 252 252 249 249 250 249 247 243 241 242 241 242 242 241 240 239 239 239 240 241 238 234 232 233 236 237 239 239 241 241 241 243 246 247 249 250 250 252 255 257 260 263 265 268 271 273 275 280 284 288 294 302 307 310 313 312 310 313 315 319 325 331
261 260 260 260 260 259 259 259 258 258 258 258 258 257 257 257 256 256 255 255 254 254 253 251 251 250 251 252 249 250 251 249 248 245 241 241 241 241 242 242 241 240 238 239 239 241 242 239 235 233 234 237 239 241 244 245 244 244 248 250 250 250 251 254 256 258 260 263 266 269 272 275 279 284 285 288 293 299 306 307 310 310 308 310 311 321 332 334
261 261 260 260 260 259 259 259 258 258 257 257 257 257 257 256 256 255 255 254 254 253 252 252 252 251 252 252 249 250 251 249 248 247 244 242 241 241 241 241 241 241 239 238 238 239 241 242 239 236 235 236 239 242 244 246 247 246 246 248 249 251 253 255 258 259 260 264 268 270 273 278 283 287 286 289 292 294 298 299 303 305 301 303 309 321 330 330
262 261 261 260 260 260 259 259 258 258 257 257 257 256 256 256 255 255 255 254 253 253 252 252 253 252 253 253 250 249 249 249 248 247 245 242 240 240 240 240 240 241 240 239 237 237 238 240 241 240 238 237 238 239 242 246 248 246 244 245 248 251 253 255 258 261 264 267 270 273 276 280 284 285 285 287 288 289 289 289 295 296 293 299 307 317 322 323
262 262 261 261 260 260 259 259 259 258 258 257 256 256 256 256 255 255 255 254 253 252 252 252 253 253 254 253 251 248 247 247 247 246 245 242 240 239 239 239 239 240 241 241 239 238 236 237 239 241 241 239 238 239 241 243 244 244 244 246 248 252 254 256 259 263 267 268 270 274 277 278 280 281 281 282 283 284 284 284 286 287 288 295 304 312 315 317
262 262 262 261 261 260 260 259 259 259 258 258 257 256 256 255 255 254 254 254 254 253 252 252 252 253 253 252 251 248 245 244 245 245 244 243 241 239 239 239 238 239 240 241 240 239 237 237 237 239 242 241 239 238 238 239 242 245 248 250 252 255 257 257 259 262 265 266 269 272 274 274 276 278 279 280 281 281 280 281 281 281 282 288 296 299 300 307
263 263 262 262 261 261 260 260 259 259 258 258 258 257 256 256 255 254 254 254 253 253 252 252 251 251 251 251 250 248 245 244 243 244 244 243 241 240 239 240 239 238 238 239 240 240 239 239 238 239 240 240 239 239 239 241 244 247 250 253 255 256 256 256 257 259 262 264 266 268 270 271 274 275 277 279 281 279 277 277 275 272 274 278 282 283 285 294
264 264 263 262 262 261 261 260 260 259 258 258 258 257 256 256 256 255 254 254 253 252 252 251 250 251 250 250 250 248 246 243 242 242 243 242 241 240 239 239 239 238 238 238 238 238 239 240 241 241 240 240 240 241 242 244 246 247 250 252 254 255 255 255 256 257 259 261 263 265 267 271 273 274 276 278 278 275 273 273 270 263 262 265 268 273 279 284
264 264 264 263 262 262 261 260 260 259 259 258 258 258 257 256 256 255 254 255 255 253 252 251 249 250 251 249 248 248 246 244 242 241 241 241 240 240 239 238 239 238 237 237 237 237 238 239 241 241 241 241 242 243 244 246 246 247 247 250 252 253 254 254 255 255 256 258 262 264 267 271 273 274 276 278 276 272 270 270 268 262 256 257 262 269 272 274
264 264 263 263 262 262 261 260 260 259 259 258 258 257 257 256 256 255 254 255 256 254 252 252 250 249 251 249 246 247 246 245 244 242 241 241 240 239 239 239 239 238 237 237 238 238 237 239 240 240 240 242 243 244 245 247 248 248 248 250 252 252 253 253 254 255 255 257 260 264 268 271 273 275 278 279 277 272 269 269 267 261 255 253 257 261 261 263
265 264 263 263 262 262 261 260 260 259 259 258 257 257 257 256 256 255 254 254 256 256 253 252 252 249 250 250 247 245 246 245 244 243 242 241 241 240 238 239 239 239 238 238 238 238 237 240 240 239 240 241 243 244 246 248 249 249 249 249 250 251 251 252 253 255 257 258 260 265 268 272 274 277 278 278 277 272 268 269 266 259 252 250 251 253 255 258
265 264 263 262 262 261 261 260 260 259 258 258 257 257 256 256 255 255 255 253 254 256 254 251 252 251 249 249 247 245 245 246 246 245 244 243 242 241 238 238 239 239 239 239 238 237 238 241 241 240 241 242 243 245 247 248 249 248 248 248 249 250 250 252 253 256 258 260 263 266 269 272 274 276 275 273 274 271 268 268 266 258 249 246 247 247 247 249
265 264 263 263 262 261 260 260 259 259 258 257 257 257 256 255 255 254 254 254 253 254 254 252 250 250 250 249 249 247 245 246 247 246 245 243 243 242 240 239 239 240 239 239 239 237 239 242 241 241 241 242 243 244 245 246 246 246 247 246 247 249 250 253 255 257 259 261 264 267 269 270 271 274 274 271 270 269 267 266 264 260 249 241 242 242 240 241
266 265 264 263 263 262 261 260 259 259 258 257 256 256 256 255 255 254 253 253 252 252 252 252 250 248 249 250 249 247 246 246 247 246 245 244 244 243 242 241 240 240 240 239 239 238 240 242 242 242 242 242 242 243 244 244 244 245 246 246 247 250 252 254 256 258 260 261 263 265 268 269 270 274 273 270 268 265 264 263 262 261 253 240 238 239 236 235
267 266 265 264 264 263 262 261 260 259 258 257 256 256 255 255 254 254 253 252 251 250 250 250 250 248 248 249 249 248 247 246 247 246 245 244 244 244 243 242 241 241 240 240 239 240 242 242 242 242 242 242 242 243 243 242 243 244 245 246 247 250 252 254 255 257 259 261 263 266 268 269 271 271 268 267 267 263 258 256 255 257 255 243 235 237 236 233
269 268 267 266 265 264 264 263 262 261 259 258 257 256 255 254 253 253 252 251 250 249 248 248 249 249 248 248 249 249 247 246 246 247 246 244 243 243 243 243 242 241 241 240 239 240 241 241 240 241 241 241 241 241 241 241 242 243 244 245 247 249 252 253 256 258 260 262 266 268 268 267 267 263 262 265 266 259 251 247 247 251 253 246 235 235 234 232
271 270 269 268 267 266 265 264 263 263 261 259 258 256 255 254 253 252 251 250 249 247 247 247 248 249 249 248 248 249 248 246 246 247 247 246 245 245 244 243 242 241 241 240 239 240 241 241 241 241 241 240 240 241 242 242 241 242 243 245 247 250 252 254 257 259 260 265 268 266 262 261 260 260 262 263 261 257 248 244 244 247 251 245 234 233 232 230
272 271 271 270 269 268 266 265 264 263 263 261 259 257 255 254 252 251 249 249 249 248 246 245 246 247 248 247 247 247 248 247 246 246 247 247 245 244 243 243 242 242 243 242 240 241 242 242 241 242 242 241 241 242 242 242 241 242 244 246 248 250 253 255 257 258 263 266 263 259 257 259 262 265 264 258 257 259 252 243 243 246 249 243 231 232 230 229
274 273 272 272 271 270 269 267 265 264 263 262 261 259 257 254 252 250 249 248 248 248 246 244 244 245 246 246 246 246 246 246 245 245 246 246 245 244 243 243 244 243 243 243 242 242 243 242 243 243 242 241 241 242 242 242 242 244 245 247 248 250 252 254 256 259 262 259 254 256 260 265 269 266 260 255 258 263 257 245 239 241 247 244 231 230 231 229
276 275 275 274 273 273 272 271 269 267 264 262 260 259 257 255 252 250 249 247 247 248 247 245 244 243 245 245 245 244 243 243 243 242 243 244 244 243 243 243 243 243 242 242 241 241 241 242 242 241 241 241 241 242 242 243 243 244 246 247 247 249 251 253 256 257 255 252 254 259 264 270 269 260 255 256 260 263 259 252 242 235 242 244 233 229 230 230
278 278 278 277 276 275 274 273 271 270 267 264 261 258 256 254 252 250 248 248 247 248 247 246 244 242 242 243 243 243 242 241 241 240 239 240 241 240 241 241 241 241 240 239 238 237 237 238 238 238 239 240 240 240 241 241 241 242 243 243 244 246 248 251 252 251 250 252 255 260 265 268 262 254 253 256 258 259 257 257 250 234 235 241 236 229 228 229
280 280 280 279 278 276 275 274 272 271 269 267 264 260 257 254 251 249 248 247 246 246 245 244 242 240 239 239 240 241 240 239 239 238 237 237 237 237 237 238 239 239 238 237 237 236 236 237 237 237 237 237 237 237 238 238 238 239 239 240 242 244 246 248 248 249 250 253 257 262 266 263 256 254 255 257 258 257 253 252 251 238 230 233 234 229 225 227
281 280 279 279 278 277 275 274 272 271 269 267 265 262 259 255 251 248 247 246 245 244 243 241 240 239 236 235 236 237 237 237 237 237 237 237 237 236 235 235 236 236 236 236 236 236 236 236 236 235 234 234 234 234 235 236 236 238 239 240 242 244 245 246 247 249 251 254 259 263 260 255 254 256 256 256 256 254 249 244 242 239 231 227 228 227 223 224
281 279 278 278 277 276 274 273 272 270 268 267 265 263 260 256 252 248 245 245 243 241 240 240 239 237 235 234 234 235 236 236 237 237 237 237 236 236 236 234 234 234 235 235 234 234 234 234 234 234 234 233 233 233 233 234 235 236 238 239 240 241 242 243 245 248 251 255 258 256 252 251 253 254 253 252 252 251 247 240 232 233 232 225 223 224 222 224
282 280 279 278 276 275 273 272 271 269 268 266 264 262 260 257 253 248 245 243 242 239 237 238 238 237 235 233 233 234 235 236 237 237 237 236 235 234 234 233 233 233 232 231 231 230 230 230 231 232 232 233 234 234 234 234 234 235 236 236 237 239 242 244 246 249 253 255 253 249 248 249 250 252 251 249 250 249 248 242 231 226 226 222 220 220 221 225
284 282 281 279 276 274 273 272 271 269 267 265 264 261 259 257 254 249 244 241 240 238 236 235 236 236 235 233 233 232 232 234 235 236 236 235 234 232 231 231 231 231 231 229 228 228 226 227 229 230 230 231 232 233 233 234 235 236 235 236 238 240 243 244 246 248 250 249 247 245 246 248 248 249 248 246 248 248 246 244 236 227 220 218 220 220 218 223
286 284 282 280 278 276 274 272 271 269 268 266 264 261 259 257 254 251 246 241 239 237 235 233 234 235 234 233 232 231 230 230 232 234 235 234 233 232 230 230 230 232 233 232 231 230 228 227 228 229 229 230 231 232 233 234 235 235 235 238 240 241 243 243 244 245 245 245 244 245 246 247 246 245 245 245 247 247 246 242 237 229 219 214 218 220 218 219
289 286 284 281 279 278 276 274 272 270 268 267 264 262 260 257 254 251 247 243 239 236 235 233 232 232 233 232 231 230 228 228 229 231 233 234 233 232 231 230 231 232 233 234 233 233 232 230 230 230 229 230 232 232 233 234 235 235 235 238 241 242 243 244 244 245 246 245 244 246 247 247 245 243 244 247 248 248 245 241 236 228 218 212 214 219 219 216
292 290 287 284 281 280 278 276 274 272 270 268 266 264 261 258 255 252 248 244 240 236 234 233 231 231 231 231 230 228 226 226 227 228 231 233 232 232 231 231 231 231 232 232 231 231 232 232 231 231 230 232 233 232 231 231 233 233 232 232 235 236 237 239 240 242 242 241 243 244 245 245 243 241 240 242 243 242 239 236 233 225 217 212 213 219 220 215
296 294 291 288 285 282 280 277 274 272 270 269 268 266 263 260 257 253 249 245 241 237 234 233 231 229 230 230 229 228 225 224 225 226 228 231 231 230 230 229 230 231 231 232 231 231 231 231 231 232 233 233 234 232 230 229 230 230 228 228 229 232 232 232 234 237 237 236 239 240 241 242 239 235 233 233 234 235 234 232 229 223 216 213 213 218 220 216
300 297 294 291 288 286 283 280 277 274 271 269 267 266 264 261 257 255 251 246 242 238 234 232 230 228 228 228 228 227 225 224 224 225 226 229 229 229 228 228 228 230 230 231 232 232 233 232 231 231 232 232 231 230 229 228 229 229 228 228 229 232 233 231 230 233 234 233 235 237 239 239 236 232 231 230 229 230 231 231 227 222 217 214 213 217 220 217
301 299 296 293 290 288 285 282 280 277 275 273 269 266 263 261 258 255 252 248 243 239 235 231 229 228 227 227 226 226 225 223 224 225 225 227 227 227 228 226 226 228 228 228 230 229 230 232 230 230 230 228 228 229 228 227 229 231 231 230 230 231 232 231 230 232 234 233 234 236 238 237 235 233 232 230 227 227 230 231 227 222 219 216 215 217 220 219
303 302 301 298 294 291 287 284 282 280 278 277 273 269 265 262 259 256 253 248 243 239 236 231 227 226 226 226 224 224 224 223 223 224 224 225 226 226 226 226 224 225 225 226 228 227 227 230 231 231 231 229 228 229 229 229 231 233 231 230 230 229 230 231 231 231 233 235 235 236 238 237 236 236 235 231 227 225 229 230 226 222 220 217 216 217 219 219
305 305 305 303 301 298 294 290 287 285 283 280 277 274 270 265 261 258 254 249 242 239 236 231 226 225 225 225 223 222 223 222 222 223 222 223 225 225 225 225 223 222 222 223 225 226 226 227 229 231 233 232 230 230 229 227 227 229 229 227 227 227 228 230 231 231 231 233 234 236 237 237 237 238 236 232 226 222 227 229 226 223 220 216 216 217 219 219
311 308 307 306 305 303 300 296 292 289 287 285 282 279 275 270 264 259 254 249 242 237 235 232 227 224 223 223 222 222 222 222 222 222 221 221 223 224 224 225 223 220 220 221 222 223 224 225 226 228 230 231 230 230 229 226 225 225 225 224 225 226 227 229 231 231 230 231 232 234 235 235 236 237 234 230 226 221 223 227 226 224 221 217 215 217 218 219
320 317 315 312 310 308 305 302 298 295 292 289 286 284 280 274 267 260 253 247 241 236 234 231 228 224 222 222 222 221 221 221 221 221 220 219 221 222 222 224 223 220 219 219 219 220 222 224 224 224 227 229 229 230 229 228 226 225 226 224 222 224 225 226 230 231 230 231 232 232 233 233 234 236 232 228 227 224 222 224 226 225 222 219 216 216 217 217
329 326 324 322 319 317 313 309 305 301 299 295 291 287 281 275 268 261 253 246 241 236 233 231 228 224 222 222 222 221 221 221 220 219 220 219 219 219 219 221 222 219 217 218 217 217 219 222 223 223 224 226 228 230 230 228 226 226 228 227 223 221 222 223 226 228 229 229 230 231 231 232 234 235 233 230 229 226 222 223 226 227 224 221 218 216 216 216
339 336 333 330 327 324 319 315 312 309 307 303 298 292 285 279 271 263 253 246 241 236 232 229 227 224 222 221 221 221 221 221 219 218 219 219 218 217 216 218 220 219 217 216 215 215 217 220 221 221 222 224 226 228 228 227 224 224 226 226 224 221 222 222 224 226 228 229 229 229 230 232 234 235 234 233 231 228 224 224 227 230 228 224 221 219 217 216
347 344 340 337 334 331 327 323 319 316 314 310 304 298 291 283 275 265 254 246 240 235 232 229 226 223 221 220 221 220 220 220 218 217 217 218 218 215 213 215 218 218 216 215 213 213 214 218 219 218 219 222 224 225 225 224 223 223 224 225 224 222 222 224 225 226 227 229 229 228 230 231 232 233 235 234 232 229 225 223 227 232 232 227 222 220 218 217
354 351 348 345 343 340 336 332 328 324 321 318 312 306 298 288 278 267 255 247 241 236 232 229 226 223 221 220 220 220 219 218 218 217 216 217 217 215 211 212 215 216 216 214 212 211 212 215 217 216 217 220 221 222 223 221 220 222 224 224 223 222 222 225 226 226 226 228 229 229 229 230 230 231 234 236 234 229 225 223 226 232 233 230 225 221 219 219
Height
10959 10959 10959 10960 10961 10962 10963 10963 10964 10965 10965 10966 10967 10969 10970 10971 10972 10973 10974 10975 10976 10977 10977 10977 10978 10978 10979 10979 10979 10980 10980 10980 10980 10980 10980 10980 10980 10980 10980 10981 10981 10981 10982 10983 10983 10984 10985 10986 10987 10988 10989 10990 10991 10992 10993 10994 10996 10997 10997 10998 10999 11000 11000 11001 11001 11001 11002 11003 11002 11002 11003 11004 11003 11002 11002 10999 10998 10996 10995 10994 10994 10993 10992 10991 10990 10989 10988 10987
10955 10956 10956 10957 10958 10958 10959 10960 10961 10962 10962 10963 10964 10966 10967 10968 10969 10970 10971 10972 10974 10975 10975 10976 10976 10977 10977 10978 10978 10978 10979 10980 10980 10979 10979 10980 10980 10980 10980 10980 10980 10981 10981 10982 10982 10983 10984 10984 10985 10986 10988 10989 10989 10990 10991 10992 10993 10995 10995 10996 10996 10997 10998 10999 10999 10999 11000 11001 11001 11000 11001 11001 11001 11000 10999 10998 10996 10995 10994 10993 10992 10992 10991 10990 10989 10988 10987 10986
10952 10952 10953 10953 10954 10955 10956 10957 10958 10958 10959 10960 10961 10962 10963 10964 10966 10967 10968 10970 10971 10972 10973 10973 10974 10975 10975 10976 10976 10977 10977 10978 10979 10979 10979 10979 10979 10979 10979 10979 10980 10980 10980 10981 10981 10982 10982 10983 10984 10985 10986 10987 10988 10989 10989 10990 10991 10993 10993 10994 10994 10995 10996 10997 10998 10998 10998 11000 11000 10999 11000 11000 10999 10999 10998 10997 10995 10994 10994 10993 10992 10990 10989 10989 10988 10987 10986 10984
10949 10949 10949 10950 10950 10951 10952 10953 10954 10954 10955 10956 10957 10958 10960 10961 10962 10963 10965 10967 10968 10969 10970 10971 10972 10973 10973 10974 10974 10975 10975 10976 10977 10978 10978 10978 10978 10978 10978 10978 10979 10979 10980 10980 10980 10981 10981 10982 10983 10984 10985 10986 10987 10988 10988 10989 10990 10991 10992 10992 10993 10993 10994 10995 10996 10996 10997 10997 10998 10998 10998 10998 10998 10997 10997 10996 10994 10993 10993 10991 10990 10989 10988 10987 10987 10986 10985 10983
10945 10945 10945 10946 10947 10947 10948 10949 10950 10950 10951 10953 10954 10955 10956 10957 10958 10960 10961 10963 10964 10966 10967 10968 10969 10970 10971 10971 10972 10973 10973 10974 10975 10975 10976 10977 10977 10977 10977 10978 10978 10978 10979 10979 10979 10980 10980 10981 10982 10982 10983 10985 10985 10986 10987 10988 10988 10989 10990 10991 10991 10992 10992 10994 10995 10995 10996 10996 10996 10997 10996 10996 10997 10997 10996 10995 10993 10992 10991 10990 10989 10988 10987 10986 10985 10984 10983 10982
10941 10941 10941 10942 10942 10943 10944 10945 10945 10946 10947 10948 10949 10951 10952 10953 10954 10955 10957 10959 10960 10962 10964 10965 10966 10967 10968 10968 10969 10969 10970 10972 10972 10972 10974 10975 10976 10976 10976 10976 10977 10977 10977 10978 10978 10979 10979 10980 10980 10981 10982 10982 10983 10984 10985 10986 10987 10987 10988 10989 10990 10991 10991 10992 10993 10993 10994 10995 10995 10995 10995 10995 10996 10996 10994 10994 10992 10990 10989 10988 10988 10987 10986 10985 10983 10983 10982 10981
10936 10936 10936 10937 10938 10938 10939 10940 10941 10942 10943 10944 10945 10946 10948 10949 10950 10951 10953 10954 10956 10958 10960 10961 10962 10964 10965 10965 10966 10966 10968 10969 10969 10970 10972 10973 10973 10974 10974 10974 10975 10975 10976 10977 10977 10977 10978 10978 10979 10979 10980 10981 10982 10983 10984 10984 10985 10986 10987 10988 10989 10989 10990 10991 10991 10992 10993 10993 10993 10993 10994 10994 10995 10995 10993 10993 10992 10989 10988 10987 10987 10986 10985 10984 10983 10981 10981 10980
10931 10931 10931 10932 10932 10933 10934 10935 10936 10937 10938 10939 10940 10941 10943 10944 10946 10947 10948 10949 10951 10953 10955 10956 10957 10959 10961 10962 10962 10963 10964 10964 10965 10968 10969 10969 10970 10971 10971 10972 10972 10973 10974 10975 10975 10976 10977 10977 10977 10978 10978 10979 10980 10981 10982 10982 10983 10984 10985 10986 10987 10988 10988 10989 10989 10990 10990 10991 10991 10991 10992 10993 10994 10994 10993 10992 10990 10988 10987 10986 10985 10985 10984 10983 10982 10981 10980 10979
10925 10925 10926 10926 10927 10928 10929 10929 10930 10931 10932 10933 10934 10936 10937 10939 10941 10942 10943 10945 10946 10948 10950 10951 10952 10954 10956 10957 10957 10959 10961 10961 10963 10965 10964 10965 10967 10968 10968 10969 10970 10971 10972 10973 10973 10974 10974 10975 10976 10977 10978 10978 10979 10979 10980 10980 10981 10983 10983 10984 10985 10986 10986 10986 10987 10988 10988 10988 10989 10989 10990 10991 10992 10992 10992 10991 10989 10987 10986 10985 10985 10984 10984 10982 10982 10980 10979 10978
10919 10920 10920 10920 10921 10922 10923 10923 10924 10925 10926 10927 10928 10930 10931 10933 10935 10937 10938 10940 10941 10943 10945 10946 10948 10949 10951 10952 10951 10955 10958 10957 10958 10960 10959 10961 10963 10964 10965 10965 10966 10967 10969 10970 10971 10972 10972 10973 10975 10975 10976 10976 10976 10977 10978 10978 10980 10981 10982 10982 10983 10984 10984 10984 10985 10985 10986 10986 10987 10987 10988 10989 10990 10991 10991 10990 10989 10987 10986 10985 10984 10984 10983 10982 10981 10980 10979 10978
10913 10913 10913 10913 10914 10915 10916 10917 10918 10919 10920 10921 10922 10923 10925 10927 10929 10931 10932 10934 10936 10937 10939 10941 10943 10943 10945 10946 10945 10951 10954 10951 10952 10955 10955 10957 10959 10960 10961 10961 10963 10964 10965 10966 10967 10969 10970 10971 10973 10973 10973 10974 10975 10976 10976 10977 10978 10979 10980 10981 10981 10982 10983 10983 10983 10983 10984 10984 10984 10985 10985 10987 10988 10989 10990 10989 10988 10987 10986 10985 10984 10983 10982 10981 10981 10980 10980 10978
10905 10906 10906 10906 10907 10908 10909 10910 10911 10912 10913 10914 10915 10916 10918 10920 10922 10924 10926 10928 10929 10931 10933 10936 10937 10938 10940 10939 10940 10947 10948 10945 10947 10950 10951 10952 10954 10955 10956 10957 10959 10960 10962 10963 10964 10965 10967 10969 10970 10970 10970 10972 10973 10973 10974 10975 10976 10977 10978 10979 10979 10980 10981 10981 10981 10981 10982 10982 10982 10983 10983 10984 10985 10986 10989 10989 10987 10986 10985 10985 10984 10982 10981 10981 10980 10980 10980 10979
10898 10898 10899 10899 10899 10900 10901 10902 10903 10904 10905 10907 10908 10909 10910 10912 10915 10917 10919 10921 10923 10925 10927 10930 10932 10933 10934 10932 10936 10941 10940 10939 10941 10944 10946 10947 10949 10950 10951 10953 10954 10956 10957 10958 10960 10961 10963 10966 10967 10967 10968 10969 10970 10969 10971 10973 10974 10975 10975 10977 10978 10978 10978 10979 10979 10979 10980 10980 10980 10981 10981 10982 10983 10984 10986 10987 10987 10985 10984 10983 10983 10982 10981 10980 10980 10980 10980 10979
10890 10890 10891 10891 10891 10892 10893 10894 10895 10896 10897 10899 10900 10901 10902 10904 10908 10910 10912 10914 10916 10918 10920 10923 10925 10927 10928 10925 10931 10936 10933 10935 10935 10936 10941 10943 10944 10945 10945 10948 10949 10951 10953 10954 10956 10957 10959 10961 10963 10964 10965 10965 10965 10967 10969 10970 10971 10972 10973 10974 10974 10974 10975 10977 10977 10977 10978 10977 10978 10979 10979 10979 10981 10982 10983 10985 10986 10985 10983 10982 10982 10982 10981 10980 10980 10980 10979 10978
10882 10882 10883 10883 10883 10884 10885 10886 10887 10888 10889 10891 10892 10893 10894 10896 10900 10902 10904 10906 10909 10911 10913 10917 10918 10921 10921 10918 10926 10929 10926 10928 10928 10930 10936 10937 10939 10939 10940 10942 10944 10945 10948 10950 10952 10953 10955 10956 10959 10961 10961 10962 10963 10965 10966 10966 10967 10969 10971 10970 10970 10971 10973 10974 10974 10975 10976 10976 10976 10976 10977 10977 10979 10979 10980 10982 10984 10984 10983 10982 10981 10981 10980 10980 10979 10979 10979 10978
10874 10874 10874 10875 10875 10876 10876 10877 10878 10879 10880 10882 10884 10885 10886 10888 10891 10894 10896 10898 10901 10903 10906 10910 10911 10914 10913 10912 10918 10922 10921 10922 10923 10925 10928 10930 10932 10932 10934 10936 10938 10939 10941 10944 10947 10949 10951 10952 10954 10956 10957 10959 10961 10961 10962 10963 10963 10964 10965 10966 10967 10968 10971 10972 10972 10972 10974 10974 10973 10973 10974 10975 10977 10976 10977 10980 10981 10982 10982 10982 10981 10980 10979 10979 10978 10979 10979 10978
10865 10865 10866 10866 10866 10867 10868 10868 10870 10870 10871 10873 10875 10876 10878 10880 10883 10886 10887 10889 10892 10895 10899 10902 10904 10907 10906 10906 10910 10914 10915 10914 10916 10918 10919 10923 10925 10926 10928 10930 10932 10934 10935 10939 10942 10944 10946 10948 10949 10951 10953 10955 10956 10957 10959 10959 10956 10958 10961 10963 10964 10966 10969 10970 10969 10970 10972 10972 10971 10971 10972 10973 10974 10974 10974 10977 10979 10980 10980 10981 10982 10980 10979 10979 10978 10978 10978 10977
10856 10856 10856 10857 10857 10857 10859 10860 10860 10861 10862 10863 10865 10868 10869 10871 10874 10878 10879 10881 10883 10886 10891 10894 10898 10899 10898 10898 10901 10904 10907 10908 10910 10911 10912 10916 10918 10920 10922 10923 10927 10929 10931 10934 10935 10938 10941 10942 10945 10947 10948 10949 10950 10953 10954 10950 10950 10956 10959 10960 10962 10964 10966 10967 10967 10968 10969 10969 10969 10969 10969 10970 10972 10972 10971 10973 10977 10978 10978 10979 10981 10980 10979 10978 10978 10978 10977 10977
10846 10846 10847 10847 10847 10847 10849 10850 10851 10852 10853 10854 10856 10858 10860 10862 10865 10869 10871 10872 10875 10879 10882 10886 10890 10890 10889 10890 10891 10895 10900 10902 10904 10905 10905 10908 10911 10914 10916 10917 10921 10923 10926 10928 10929 10932 10934 10937 10942 10943 10941 10941 10944 10947 10947 10945 10950 10956 10957 10957 10959 10961 10963 10963 10964 10965 10965 10966 10966 10966 10965 10966 10970 10970 10968 10970 10973 10975 10975 10977 10979 10980 10978 10978 10978 10977 10977 10977
10836 10836 10836 10837 10837 10837 10838 10840 10841 10842 10843 10844 10845 10847 10851 10853 10855 10860 10863 10863 10866 10870 10873 10878 10881 10881 10880 10881 10882 10886 10891 10894 10898 10899 10898 10901 10904 10907 10910 10912 10914 10918 10921 10921 10922 10926 10929 10935 10937 10933 10932 10935 10939 10942 10942 10943 10949 10953 10953 10954 10955 10957 10959 10959 10960 10962 10962 10962 10963 10963 10962 10963 10967 10968 10967 10968 10971 10972 10972 10974 10977 10979 10978 10977 10977 10976 10976 10977
10824 10824 10824 10825 10825 10825 10826 10828 10829 10830 10832 10833 10835 10837 10840 10843 10845 10850 10855 10855 10855 10860 10864 10868 10873 10874 10869 10870 10874 10875 10881 10887 10889 10891 10890 10892 10896 10900 10904 10905 10907 10911 10912 10912 10917 10921 10927 10931 10926 10922 10927 10931 10934 10936 10938 10941 10945 10948 10950 10950 10951 10952 10954 10955 10956 10958 10959 10959 10959 10960 10960 10961 10963 10965 10965 10965 10968 10970 10969 10972 10975 10976 10977 10976 10975 10975 10975 10977
10811 10811 10811 10811 10812 10812 10813 10815 10817 10818 10819 10821 10824 10826 10827 10832 10835 10839 10847 10849 10844 10847 10856 10857 10861 10867 10856 10856 10866 10866 10872 10880 10879 10881 10883 10885 10890 10894 10896 10897 10900 10902 10902 10907 10913 10918 10924 10921 10913 10917 10924 10927 10929 10931 10933 10936 10940 10944 10946 10946 10947 10948 10949 10951 10952 10953 10954 10956 10956 10957 10958 10959 10960 10963 10964 10963 10965 10967 10967 10969 10972 10973 10975 10974 10974 10974 10975 10976
10797 10797 10797 10797 10798 10798 10798 10800 10803 10805 10806 10807 10811 10814 10816 10819 10823 10829 10836 10842 10836 10832 10843 10847 10848 10854 10847 10843 10852 10859 10865 10868 10869 10872 10874 10879 10883 10884 10888 10891 10892 10893 10896 10904 10908 10912 10915 10907 10905 10915 10920 10922 10925 10926 10929 10932 10936 10939 10941 10942 10942 10941 10943 10946 10947 10948 10950 10953 10953 10954 10955 10956 10956 10959 10963 10961 10961 10964 10965 10965 10968 10971 10972 10972 10972 10973 10973 10974
10783 10783 10782 10782 10783 10784 10784 10785 10786 10790 10792 10794 10796 10799 10804 10806 10811 10818 10823 10832 10830 10818 10825 10836 10837 10838 10834 10828 10836 10853 10860 10857 10859 10863 10866 10872 10873 10874 10881 10883 10883 10886 10893 10898 10899 10904 10904 10898 10903 10912 10915 10917 10920 10922 10926 10928 10931 10933 10935 10936 10935 10935 10938 10940 10942 10944 10946 10949 10951 10951 10953 10954 10953 10954 10959 10960 10959 10961 10963 10962 10964 10968 10970 10970 10969 10971 10972 10973
10768 10768 10768 10767 10768 10769 10771 10770 10770 10774 10777 10779 10782 10784 10789 10793 10798 10806 10811 10819 10818 10807 10808 10819 10824 10822 10816 10818 10832 10845 10848 10848 10851 10852 10855 10860 10862 10865 10871 10874 10877 10882 10887 10888 10890 10896 10895 10892 10900 10907 10908 10912 10915 10917 10920 10921 10924 10926 10929 10930 10927 10929 10933 10935 10938 10941 10943 10946 10947 10948 10949 10950 10949 10949 10953 10956 10957 10958 10960 10959 10959 10963 10968 10968 10967 10969 10971 10971
10753 10753 10752 10753 10752 10753 10755 10755 10755 10758 10760 10763 10767 10770 10774 10779 10784 10791 10799 10803 10800 10796 10795 10797 10805 10808 10805 10811 10822 10827 10835 10843 10841 10838 10845 10850 10852 10855 10859 10866 10872 10874 10877 10878 10881 10889 10888 10887 10895 10899 10901 10905 10909 10912 10913 10914 10918 10921 10922 10921 10921 10924 10928 10931 10934 10936 10939 10942 10943 10944 10945 10946 10946 10947 10947 10949 10954 10956 10957 10956 10954 10956 10963 10966 10965 10967 10968 10969
10738 10737 10737 10738 10737 10737 10738 10739 10740 10743 10745 10747 10751 10756 10759 10764 10770 10775 10784 10786 10779 10779 10780 10779 10784 10792 10796 10800 10806 10815 10829 10835 10826 10824 10835 10840 10841 10845 10850 10858 10862 10864 10866 10867 10876 10885 10880 10880 10888 10891 10893 10899 10904 10906 10904 10907 10913 10915 10913 10914 10917 10919 10923 10926 10928 10932 10935 10936 10939 10940 10940 10941 10943 10945 10943 10943 10948 10953 10954 10953 10950 10950 10956 10962 10964 10964 10965 10966
10723 10722 10721 10721 10722 10723 10722 10722 10724 10725 10728 10731 10735 10740 10744 10749 10755 10760 10767 10765 10758 10759 10762 10765 10769 10776 10787 10794 10797 10806 10817 10819 10814 10814 10821 10827 10830 10836 10841 10848 10852 10852 10853 10859 10873 10875 10867 10871 10880 10881 10885 10893 10897 10895 10895 10901 10908 10907 10904 10908 10913 10914 10918 10921 10923 10928 10930 10931 10935 10935 10935 10936 10939 10940 10939 10938 10942 10947 10950 10949 10947 10946 10950 10958 10961 10961 10962 10963
10708 10707 10705 10704 10705 10707 10707 10708 10708 10707 10709 10714 10719 10722 10727 10734 10739 10744 10749 10743 10734 10739 10747 10754 10761 10767 10776 10786 10788 10792 10799 10806 10806 10803 10807 10817 10823 10827 10833 10837 10838 10839 10843 10854 10865 10861 10858 10866 10870 10872 10880 10887 10889 10887 10889 10898 10902 10898 10898 10904 10908 10910 10913 10916 10920 10923 10924 10928 10930 10927 10928 10931 10933 10934 10935 10936 10934 10938 10944 10945 10945 10944 10946 10954 10958 10957 10959 10960
10693 10691 10690 10688 10687 10689 10691 10693 10693 10691 10692 10696 10699 10704 10709 10716 10721 10725 10729 10723 10713 10718 10732 10744 10753 10758 10761 10769 10777 10781 10786 10792 10794 10793 10796 10804 10810 10816 10821 10821 10823 10831 10837 10845 10854 10854 10852 10855 10860 10868 10876 10879 10880 10880 10885 10892 10893 10890 10894 10900 10903 10905 10908 10911 10915 10917 10921 10925 10921 10917 10920 10924 10929 10930 10932 10933 10928 10930 10939 10943 10944 10943 10942 10950 10955 10955 10956 10958
10677 10675 10674 10673 10672 10671 10672 10674 10675 10676 10677 10678 10680 10685 10690 10695 10702 10705 10706 10703 10694 10696 10716 10733 10744 10747 10748 10756 10766 10770 10771 10774 10778 10782 10783 10787 10796 10802 10806 10809 10815 10823 10829 10837 10848 10846 10841 10846 10856 10864 10868 10870 10873 10875 10880 10885 10885 10886 10891 10896 10898 10900 10902 10905 10910 10914 10918 10916 10909 10909 10914 10920 10927 10926 10926 10928 10924 10926 10934 10938 10942 10941 10938 10945 10952 10953 10954 10956
10662 10659 10657 10657 10656 10654 10654 10654 10655 10656 10659 10661 10662 10666 10671 10674 10680 10685 10684 10682 10679 10684 10705 10725 10735 10737 10740 10745 10750 10752 10754 10757 10760 10767 10769 10772 10782 10789 10795 10802 10806 10811 10821 10832 10835 10832 10833 10841 10849 10853 10857 10862 10866 10869 10874 10877 10879 10882 10886 10889 10892 10894 10897 10901 10906 10909 10909 10904 10903 10907 10910 10918 10922 10918 10919 10922 10920 10924 10930 10934 10940 10940 10936 10940 10947 10950 10952 10954
10646 10643 10640 10640 10639 10637 10636 10636 10635 10636 10637 10640 10643 10645 10651 10655 10658 10664 10664 10663 10669 10680 10696 10711 10717 10721 10727 10730 10731 10733 10737 10739 10740 10746 10752 10755 10764 10775 10784 10789 10792 10799 10812 10815 10813 10817 10825 10828 10833 10844 10851 10854 10858 10861 10866 10870 10872 10874 10878 10881 10884 10887 10892 10896 10899 10899 10898 10898 10900 10904 10908 10915 10914 10909 10913 10917 10916 10921 10926 10930 10938 10939 10935 10937 10942 10947 10950 10951
10632 10628 10622 10620 10620 10619 10617 10617 10616 10617 10617 10619 10622 10624 10629 10635 10639 10645 10646 10647 10658 10669 10678 10688 10693 10697 10706 10711 10711 10710 10710 10714 10719 10724 10731 10738 10748 10760 10770 10775 10780 10789 10795 10794 10797 10810 10815 10816 10828 10840 10842 10842 10847 10852 10856 10859 10861 10864 10868 10872 10877 10883 10887 10889 10889 10889 10891 10893 10897 10902 10907 10908 10904 10903 10910 10912 10913 10918 10922 10927 10934 10937 10935 10935 10939 10944 10947 10948
10617 10612 10606 10600 10600 10600 10597 10597 10597 10597 10598 10598 10600 10603 10607 10613 10619 10627 10631 10631 10640 10651 10658 10664 10668 10672 10683 10688 10681 10676 10682 10693 10701 10706 10716 10728 10738 10749 10758 10764 10768 10773 10776 10779 10790 10802 10804 10811 10822 10824 10823 10828 10834 10840 10843 10846 10851 10856 10860 10867 10875 10879 10879 10880 10881 10882 10886 10890 10896 10902 10902 10899 10899 10902 10906 10908 10909 10913 10917 10922 10929 10932 10933 10934 10936 10940 10942 10944
10599 10595 10590 10583 10581 10580 10578 10577 10577 10578 10579 10579 10581 10583 10586 10592 10599 10607 10613 10614 10620 10632 10639 10642 10646 10652 10661 10662 10654 10656 10672 10685 10688 10695 10707 10719 10731 10740 10746 10750 10754 10756 10760 10768 10780 10786 10791 10802 10807 10804 10810 10820 10825 10828 10832 10837 10843 10848 10854 10865 10870 10868 10867 10872 10875 10877 10882 10888 10894 10897 10894 10892 10897 10899 10901 10904 10905 10907 10911 10917 10923 10926 10929 10931 10933 10934 10937 10939
10581 10578 10575 10568 10562 10561 10560 10559 10559 10559 10560 10561 10563 10565 10567 10572 10579 10587 10594 10597 10599 10610 10621 10624 10626 10632 10639 10641 10642 10654 10671 10677 10677 10686 10697 10704 10714 10721 10725 10732 10736 10736 10740 10750 10759 10765 10777 10788 10788 10789 10802 10813 10816 10818 10822 10828 10835 10842 10852 10859 10858 10856 10860 10868 10871 10874 10881 10886 10889 10890 10887 10889 10894 10895 10895 10898 10900 10902 10907 10911 10917 10922 10925 10927 10928 10929 10931 10933
10565 10562 10559 10551 10544 10544 10544 10542 10541 10541 10541 10543 10544 10547 10550 10554 10560 10566 10574 10579 10581 10590 10603 10607 10608 10613 10619 10625 10633 10646 10659 10662 10664 10673 10679 10682 10688 10696 10703 10709 10710 10709 10714 10725 10736 10747 10764 10773 10774 10782 10797 10804 10804 10804 10811 10822 10831 10841 10847 10847 10847 10852 10858 10864 10869 10872 10878 10880 10882 10883 10882 10886 10891 10890 10889 10893 10896 10898 10903 10907 10912 10918 10922 10922 10922 10923 10925 10927
10549 10547 10545 10537 10528 10529 10529 10527 10526 10525 10524 10525 10527 10529 10533 10537 10542 10547 10553 10560 10565 10573 10583 10588 10591 10595 10601 10611 10622 10633 10640 10644 10649 10655 10657 10659 10665 10673 10683 10690 10694 10699 10707 10720 10733 10745 10756 10764 10769 10780 10790 10791 10789 10794 10808 10821 10828 10835 10838 10838 10843 10849 10853 10859 10865 10867 10871 10874 10876 10877 10878 10883 10885 10882 10884 10890 10893 10895 10899 10903 10906 10913 10919 10919 10918 10917 10919 10922
10535 10532 10531 10525 10517 10515 10515 10513 10511 10510 10508 10508 10510 10512 10516 10520 10524 10528 10534 10540 10548 10557 10563 10568 10574 10578 10583 10595 10606 10611 10619 10629 10635 10638 10637 10639 10648 10658 10671 10682 10689 10697 10707 10721 10736 10745 10752 10760 10766 10773 10777 10775 10779 10795 10812 10821 10823 10827 10832 10834 10839 10845 10849 10855 10860 10862 10865 10869 10871 10871 10874 10877 10877 10878 10885 10889 10890 10892 10896 10898 10901 10908 10915 10916 10913 10912 10912 10916
10523 10519 10516 10513 10508 10504 10503 10501 10498 10497 10495 10494 10495 10497 10500 10504 10507 10510 10516 10522 10530 10540 10546 10550 10556 10562 10569 10580 10585 10588 10603 10616 10618 10619 10620 10622 10633 10647 10662 10675 10681 10688 10698 10711 10724 10733 10740 10751 10759 10763 10763 10766 10781 10800 10809 10811 10812 10816 10823 10827 10832 10838 10843 10850 10855 10857 10859 10863 10864 10866 10868 10869 10871 10878 10884 10885 10885 10887 10890 10893 10896 10903 10909 10910 10908 10907 10908 10912
10509 10506 10503 10500 10497 10494 10492 10489 10487 10485 10484 10482 10482 10484 10486 10489 10491 10493 10499 10506 10513 10521 10527 10531 10538 10547 10556 10562 10564 10573 10591 10600 10598 10602 10604 10604 10616 10635 10650 10663 10670 10677 10690 10701 10712 10724 10734 10746 10755 10755 10758 10770 10785 10794 10797 10800 10801 10803 10810 10818 10824 10830 10836 10845 10850 10849 10851 10855 10856 10859 10861 10862 10868 10875 10878 10878 10880 10882 10884 10887 10891 10897 10902 10903 10902 10902 10904 10909
10496 10494 10492 10489 10486 10484 10481 10478 10475 10474 10473 10473 10473 10473 10473 10475 10477 10478 10483 10491 10498 10503 10507 10512 10521 10531 10537 10539 10547 10561 10577 10584 10582 10583 10584 10586 10603 10624 10636 10649 10659 10669 10686 10699 10709 10723 10735 10742 10747 10748 10756 10769 10776 10778 10784 10787 10786 10791 10804 10814 10821 10828 10833 10839 10841 10839 10843 10848 10850 10853 10855 10858 10866 10870 10871 10874 10876 10878 10879 10882 10887 10892 10896 10897 10898 10898 10901 10906
10487 10483 10481 10479 10477 10475 10473 10469 10466 10463 10462 10462 10462 10462 10462 10463 10465 10467 10470 10476 10483 10486 10489 10496 10504 10513 10517 10522 10535 10549 10558 10564 10563 10562 10568 10578 10595 10613 10623 10636 10651 10663 10682 10694 10699 10712 10722 10726 10734 10738 10744 10756 10761 10763 10771 10775 10779 10790 10804 10813 10819 10824 10826 10829 10831 10833 10838 10843 10846 10848 10850 10856 10862 10864 10866 10870 10873 10874 10875 10877 10882 10887 10891 10893 10894 10895 10899 10904
10482 10477 10472 10468 10468 10467 10464 10461 10458 10455 10454 10452 10451 10451 10452 10453 10455 10457 10459 10464 10470 10471 10474 10481 10489 10495 10500 10508 10522 10531 10534 10541 10544 10546 10561 10577 10587 10601 10613 10626 10642 10656 10672 10681 10685 10698 10709 10715 10725 10731 10736 10748 10754 10755 10765 10777 10784 10792 10800 10806 10811 10815 10817 10820 10824 10829 10834 10838 10842 10844 10846 10853 10857 10858 10862 10866 10869 10872 10872 10872 10877 10882 10887 10890 10891 10891 10895 10900
10478 10474 10469 10461 10458 10458 10456 10453 10450 10448 10446 10444 10442 10442 10442 10443 10445 10447 10449 10453 10457 10458 10460 10467 10474 10479 10485 10494 10506 10512 10515 10524 10530 10537 10557 10571 10577 10591 10605 10616 10632 10647 10658 10665 10674 10688 10699 10706 10717 10725 10731 10744 10749 10752 10762 10773 10776 10781 10789 10797 10801 10805 10811 10814 10818 10826 10830 10832 10836 10838 10842 10849 10852 10852 10857 10862 10866 10869 10867 10868 10872 10876 10882 10886 10887 10887 10890 10894
10471 10469 10466 10460 10454 10450 10448 10446 10443 10440 10439 10437 10434 10434 10434 10434 10436 10438 10440 10442 10445 10447 10449 10454 10461 10466 10472 10480 10489 10495 10501 10511 10519 10529 10549 10562 10567 10582 10598 10607 10621 10635 10644 10653 10665 10679 10690 10697 10705 10713 10720 10729 10738 10743 10751 10759 10765 10772 10779 10788 10795 10800 10807 10812 10816 10821 10823 10826 10830 10833 10837 10843 10845 10846 10852 10858 10862 10863 10862 10864 10867 10870 10875 10881 10884 10884 10886 10890
10465 10461 10459 10455 10450 10446 10442 10439 10436 10433 10432 10430 10428 10427 10426 10425 10427 10428 10430 10432 10433 10436 10439 10443 10449 10455 10461 10467 10473 10481 10489 10497 10508 10523 10540 10551 10557 10573 10590 10599 10609 10624 10634 10645 10657 10670 10680 10685 10691 10701 10709 10718 10728 10734 10741 10754 10764 10768 10773 10783 10791 10795 10803 10810 10812 10813 10817 10822 10825 10827 10831 10837 10839 10841 10847 10853 10855 10856 10858 10860 10862 10865 10870 10876 10879 10881 10882 10886
10460 10455 10452 10449 10445 10441 10437 10433 10431 10428 10426 10424 10422 10421 10419 10418 10419 10420 10422 10422 10424 10427 10430 10434 10440 10445 10452 10457 10462 10470 10475 10482 10500 10517 10529 10539 10547 10562 10580 10589 10597 10612 10626 10636 10649 10661 10669 10674 10682 10695 10705 10713 10722 10727 10737 10753 10763 10767 10772 10780 10786 10791 10797 10802 10803 10805 10810 10815 10818 10821 10826 10830 10833 10837 10842 10846 10847 10850 10854 10857 10859 10862 10866 10869 10873 10876 10878 10882
10457 10452 10448 10444 10440 10437 10433 10429 10426 10423 10421 10418 10416 10415 10413 10412 10413 10414 10414 10414 10416 10419 10422 10426 10431 10436 10442 10448 10452 10458 10464 10474 10494 10509 10516 10525 10535 10550 10570 10579 10585 10602 10616 10626 10639 10652 10659 10664 10674 10689 10700 10705 10711 10720 10732 10746 10755 10759 10765 10772 10781 10788 10791 10793 10795 10799 10804 10808 10812 10816 10820 10825 10829 10833 10836 10838 10841 10846 10851 10855 10857 10858 10860 10864 10868 10872 10876 10879
10455 10450 10446 10441 10437 10433 10429 10425 10421 10418 10416 10413 10410 10409 10408 10407 10407 10407 10408 10408 10409 10412 10415 10418 10423 10427 10433 10439 10442 10448 10457 10470 10487 10497 10503 10512 10522 10538 10559 10568 10575 10593 10606 10615 10629 10641 10649 10657 10667 10682 10692 10694 10700 10710 10722 10735 10746 10753 10759 10766 10775 10781 10784 10787 10791 10796 10799 10802 10805 10810 10815 10820 10825 10827 10829 10832 10836 10842 10847 10851 10853 10853 10855 10859 10863 10868 10872 10875
10452 10448 10443 10439 10434 10430 10425 10422 10418 10414 10412 10409 10406 10404 10403 10402 10402 10402 10402 10403 10404 10406 10409 10412 10416 10420 10425 10430 10433 10440 10452 10465 10476 10483 10492 10501 10509 10527 10549 10558 10567 10584 10596 10606 10620 10631 10641 10649 10658 10672 10681 10681 10690 10703 10712 10726 10741 10749 10753 10758 10766 10774 10780 10784 10787 10790 10793 10796 10800 10805 10810 10814 10818 10821 10824 10826 10831 10837 10843 10848 10850 10849 10850 10854 10858 10864 10869 10870